User: anonymous   Login
Location: Chiroubles
(46.1812°N, 4.6660°E)
Time: 05:57:39
(UTC+00:00)
Language:

Transit 2A Rocket - Orbit

View from above orbital plane
View from above orbital plane
View from above satellite
View from above satellite

Ground track
Ground track

The orbit data is extracted from the following two-line orbital elements,

1    47U 60007C   20331.77898982  .00000084  00000-0  43630-4 0  9993
2    47  66.6664  80.9332 0228672 186.3809 173.4374 14.42115251158520
Epoch (UTC): 26 November 2020 18:41:44
Eccentricity: 0.0228672
inclination: 66.6664°
perigee height: 588 km
apogee height: 914 km
right ascension of ascending node: 80.9332°
argument of perigee: 186.3809°
revolutions per day: 14.42115251
mean anomaly at epoch: 173.4374°
orbit number at epoch: 15852

The dashed part of the orbit path shows where the satellite is in the earth's shadow,  

DLR